• In Lithuania
  • List of Countries
  • For 7 days
  • Water Temperature
  • Satellite Maps
  • Weather Map
  • Weather Widgets
  • user-avatar
    Login

    Hourly Weather Varenikovskoe

    Today, 15 August, Wednesday

    Time Temperature Precipitation Wind Pressure Humidity
    00:00 +24°C° 0 mm 2 mps 749 mmHg 51%
    01:00 +24°C° 0 mm 2 mps 748 mmHg 53%
    02:00 +23°C° 0 mm 2 mps 748 mmHg 56%
    03:00 +23°C° 0 mm 1 mps 748 mmHg 59%
    04:00 +23°C° 0 mm 1 mps 748 mmHg 60%
    05:00 +23°C° 0 mm 1 mps 748 mmHg 60%
    06:00 +23°C° 0 mm 1 mps 749 mmHg 61%
    07:00 +25°C° 0 mm 1 mps 749 mmHg 54%
    08:00 +27°C° 0 mm 1 mps 749 mmHg 47%
    09:00 +29°C° 0 mm 1 mps 749 mmHg 40%
    10:00 +31°C° 0 mm 2 mps 749 mmHg 36%
    11:00 +32°C° 0 mm 2 mps 749 mmHg 33%
    12:00 +34°C° 0 mm 3 mps 749 mmHg 29%
    13:00 +34°C° 0 mm 4 mps 748 mmHg 28%
    14:00 +35°C° 0 mm 4 mps 748 mmHg 28%
    15:00 +35°C° 0 mm 4 mps 748 mmHg 27%
    16:00 +34°C° 0 mm 4 mps 748 mmHg 29%
    17:00 +34°C° 0 mm 4 mps 748 mmHg 31%
    18:00 +33°C° 0 mm 4 mps 748 mmHg 33%
    19:00 +30°C° 0 mm 4 mps 748 mmHg 36%
    20:00 +29°C° 0 mm 4 mps 748 mmHg 39%
    21:00 +27°C° 0 mm 5 mps 749 mmHg 42%
    22:00 +26°C° 0 mm 4 mps 749 mmHg 47%
    23:00 +25°C° 0 mm 4 mps 749 mmHg 51%

    Tomorrow, 16 August, Thursday

    Time Temperature Precipitation Wind Pressure Humidity
    00:00 +24°C° 0 mm 3 mps 749 mmHg 56%
    01:00 +24°C° 0 mm 3 mps 748 mmHg 59%
    02:00 +23°C° 0 mm 2 mps 748 mmHg 61%
    03:00 +23°C° 0 mm 2 mps 748 mmHg 64%
    04:00 +21°C° 0 mm 2 mps 748 mmHg 66%
    05:00 +21°C° 0 mm 3 mps 748 mmHg 68%
    06:00 +21°C° 0 mm 3 mps 748 mmHg 69%
    07:00 +23°C° 0 mm 4 mps 748 mmHg 62%
    08:00 +26°C° 0 mm 5 mps 748 mmHg 55%
    09:00 +28°C° 0 mm 6 mps 748 mmHg 48%
    10:00 +30°C° 0 mm 6 mps 748 mmHg 44%
    11:00 +32°C° 0 mm 7 mps 748 mmHg 40%
    12:00 +34°C° 0 mm 7 mps 747 mmHg 35%
    13:00 +34°C° 0 mm 7 mps 747 mmHg 34%
    14:00 +35°C° 0 mm 7 mps 747 mmHg 32%
    15:00 +35°C° 0 mm 7 mps 746 mmHg 31%
    16:00 +35°C° 0 mm 6 mps 746 mmHg 33%
    17:00 +34°C° 0 mm 6 mps 746 mmHg 35%
    18:00 +33°C° 0 mm 6 mps 746 mmHg 37%
    19:00 +30°C° 0 mm 6 mps 746 mmHg 41%
    20:00 +29°C° 0 mm 6 mps 747 mmHg 46%
    21:00 +28°C° 0 mm 6 mps 747 mmHg 50%
    22:00 +27°C° 0 mm 5 mps 747 mmHg 55%
    23:00 +26°C° 0 mm 5 mps 747 mmHg 59%

    Day after tomorrow, 17 August, Friday

    Time Temperature Precipitation Wind Pressure Humidity
    00:00 +25°C° 0 mm 4 mps 746 mmHg 64%
    01:00 +25°C° 0 mm 4 mps 746 mmHg 67%
    02:00 +24°C° 0 mm 3 mps 746 mmHg 70%
    03:00 +24°C° 0 mm 3 mps 746 mmHg 73%
    04:00 +24°C° 0 mm 2 mps 746 mmHg 73%
    05:00 +23°C° 0 mm 2 mps 746 mmHg 73%
    06:00 +23°C° 0 mm 2 mps 746 mmHg 73%
    07:00 +25°C° 0 mm 2 mps 746 mmHg 66%
    08:00 +27°C° 0 mm 2 mps 746 mmHg 59%
    09:00 +29°C° 0 mm 3 mps 746 mmHg 52%
    10:00 +31°C° 0 mm 3 mps 746 mmHg 47%
    11:00 +33°C° 0 mm 3 mps 745 mmHg 42%
    12:00 +35°C° 0 mm 4 mps 745 mmHg 37%
    13:00 +35°C° 0 mm 3 mps 745 mmHg 35%
    14:00 +36°C° 0 mm 3 mps 745 mmHg 33%
    15:00 +37°C° 0 mm 3 mps 744 mmHg 31%
    16:00 +37°C° 0 mm 3 mps 744 mmHg 32%
    17:00 +36°C° 0 mm 3 mps 744 mmHg 34%
    18:00 +36°C° 0 mm 2 mps 744 mmHg 35%
    19:00 +34°C° 0 mm 3 mps 744 mmHg 39%
    20:00 +31°C° 0 mm 3 mps 744 mmHg 43%
    21:00 +29°C° 0 mm 3 mps 744 mmHg 47%
    22:00 +28°C° 0.1 mm 3 mps 744 mmHg 53%
    23:00 +28°C° 0.1 mm 2 mps 744 mmHg 58%

    18 August, Saturday

    Time Temperature Precipitation Wind Pressure Humidity
    00:00 +27°C° 0.1 mm 2 mps 744 mmHg 64%
    01:00 +26°C° 0.1 mm 2 mps 744 mmHg 68%
    02:00 +26°C° 0.1 mm 2 mps 744 mmHg 72%
    03:00 +25°C° 0.1 mm 2 mps 744 mmHg 76%
    04:00 +25°C° 0.1 mm 2 mps 744 mmHg 77%
    05:00 +25°C° 0.1 mm 3 mps 745 mmHg 77%
    06:00 +25°C° 0.1 mm 3 mps 745 mmHg 78%
    07:00 +26°C° 0.2 mm 3 mps 745 mmHg 70%
    08:00 +28°C° 0.2 mm 3 mps 745 mmHg 62%
    09:00 +29°C° 0.2 mm 3 mps 745 mmHg 54%
    10:00 +30°C° 0.3 mm 4 mps 745 mmHg 49%
    11:00 +32°C° 0.3 mm 4 mps 745 mmHg 44%
    12:00 +33°C° 0.3 mm 5 mps 745 mmHg 38%
    13:00 +33°C° 0.5 mm 5 mps 745 mmHg 37%
    14:00 +33°C° 0.5 mm 5 mps 745 mmHg 36%
    15:00 +33°C° 0.5 mm 5 mps 745 mmHg 35%
    16:00 +33°C° 0 mm 3 mps 745 mmHg 36%
    17:00 +32°C° 0 mm 2 mps 745 mmHg 37%
    18:00 +32°C° 0 mm 1 mps 745 mmHg 38%
    19:00 +31°C° 0 mm 2 mps 746 mmHg 40%
    20:00 +29°C° 0 mm 2 mps 746 mmHg 43%
    21:00 +28°C° 0 mm 2 mps 746 mmHg 45%
    22:00 +27°C° 0 mm 2 mps 746 mmHg 48%
    23:00 +26°C° 0 mm 2 mps 746 mmHg 52%

    19 August, Sunday

    Time Temperature Precipitation Wind Pressure Humidity
    00:00 +26°C° 0 mm 2 mps 746 mmHg 55%
    01:00 +25°C° 0 mm 2 mps 746 mmHg 55%
    02:00 +25°C° 0 mm 2 mps 746 mmHg 55%
    03:00 +25°C° 0 mm 2 mps 746 mmHg 55%
    04:00 +25°C° 0 mm 3 mps 747 mmHg 56%
    05:00 +24°C° 0 mm 3 mps 747 mmHg 56%
    06:00 +24°C° 0 mm 3 mps 747 mmHg 57%
    07:00 +25°C° 0 mm 3 mps 747 mmHg 53%
    08:00 +27°C° 0 mm 4 mps 748 mmHg 48%
    09:00 +29°C° 0 mm 5 mps 748 mmHg 44%
    10:00 +30°C° 0 mm 5 mps 748 mmHg 41%
    11:00 +32°C° 0 mm 5 mps 747 mmHg 38%
    12:00 +33°C° 0 mm 5 mps 747 mmHg 35%
    13:00 +33°C° 0 mm 5 mps 747 mmHg 34%
    14:00 +33°C° 0 mm 5 mps 747 mmHg 33%
    15:00 +34°C° 0 mm 5 mps 747 mmHg 32%
    16:00 +33°C° 0 mm 5 mps 747 mmHg 33%
    17:00 +32°C° 0 mm 5 mps 747 mmHg 35%
    18:00 +30°C° 0 mm 4 mps 747 mmHg 37%
    19:00 +29°C° 0 mm 4 mps 747 mmHg 38%
    20:00 +27°C° 0 mm 4 mps 748 mmHg 39%
    21:00 +26°C° 0 mm 4 mps 748 mmHg 40%
    22:00 +25°C° 0 mm 4 mps 748 mmHg 43%
    23:00 +24°C° 0 mm 3 mps 748 mmHg 46%

    20 August, Monday

    Time Temperature Precipitation Wind Pressure Humidity
    00:00 +22°C° 0 mm 3 mps 748 mmHg 50%
    01:00 +22°C° 0 mm 3 mps 748 mmHg 51%
    02:00 +21°C° 0 mm 3 mps 748 mmHg 53%
    03:00 +21°C° 0 mm 3 mps 748 mmHg 55%
    04:00 +20°C° 0 mm 3 mps 748 mmHg 56%
    05:00 +20°C° 0 mm 3 mps 748 mmHg 57%
    06:00 +20°C° 0 mm 3 mps 748 mmHg 58%
    07:00 +21°C° 0 mm 4 mps 748 mmHg 52%
    08:00 +23°C° 0 mm 4 mps 749 mmHg 45%
    09:00 +26°C° 0 mm 5 mps 749 mmHg 38%
    10:00 +27°C° 0 mm 5 mps 749 mmHg 35%
    11:00 +28°C° 0 mm 5 mps 748 mmHg 31%
    12:00 +29°C° 0 mm 5 mps 748 mmHg 27%
    13:00 +29°C° 0 mm 5 mps 748 mmHg 26%
    14:00 +30°C° 0 mm 5 mps 748 mmHg 24%
    15:00 +30°C° 0 mm 5 mps 748 mmHg 23%
    16:00 +29°C° 0 mm 4 mps 748 mmHg 25%
    17:00 +29°C° 0 mm 4 mps 748 mmHg 27%
    18:00 +28°C° 0 mm 3 mps 748 mmHg 28%
    19:00 +27°C° 0 mm 4 mps 748 mmHg 30%
    20:00 +25°C° 0 mm 4 mps 749 mmHg 31%
    21:00 +23°C° 0 mm 5 mps 749 mmHg 33%
    22:00 +22°C° 0 mm 4 mps 749 mmHg 39%
    23:00 +21°C° 0 mm 4 mps 749 mmHg 44%
    Show more